EEL RIVER CAMP CA US current weather conditions

sailwx.info

Wind from 185 at 7 knots gusting 11

Air temperature 22.2° C
Dewpoint 13.6° C

Last reported at 2015-Aug-04 22:28 UTC.
Time now 2015-Aug-04 23:56 UTC

Location: N 40°08' W 123°49'.
View on Google Maps.

See reports from other nearby stations

  
Tides and Currents Weather Stations Pressure Air Temp Water Temp Dewpoint Dewpoint Depression Visibility Wind Speed Wind Dir Waves Ship Positions
date/time (UTC)wind fromknots sea level pressurealtimeterstation pressurevisibilityair tempwater tempwave heightnotes
2015-Aug-04 22:28 185 7 gusting 11 22.2
2015-Aug-04 21:28 161 3 gusting 6 22.8
2015-Aug-04 20:28 163 3 gusting 13 22.2
2015-Aug-04 19:28 265 4 gusting 7 20.0
2015-Aug-04 18:28 219 3 gusting 5 17.8
2015-Aug-04 17:28 312 2 gusting 4 17.2
2015-Aug-04 16:28 16.7
2015-Aug-04 15:28 289 0 gusting 3 16.1
2015-Aug-04 14:28 294 1 gusting 4 15.6
2015-Aug-04 13:28 098 2 gusting 5 15.6
2015-Aug-04 12:28 049 3 gusting 6 16.1
2015-Aug-04 11:28 343 2 gusting 4 16.7
2015-Aug-04 10:28 260 1 gusting 2 16.7
2015-Aug-04 09:28 266 1 gusting 3 16.7
2015-Aug-04 08:28 248 0 gusting 3 16.7
2015-Aug-04 07:28 236 0 gusting 2 16.7
2015-Aug-04 06:28 159 0 gusting 2 16.7
2015-Aug-04 05:28 171 1 gusting 5 16.7
2015-Aug-04 04:28 168 3 gusting 6 16.7
2015-Aug-04 03:28 186 5 gusting 10 17.8
2015-Aug-04 02:28 161 6 gusting 12 20.0
2015-Aug-04 01:28 179 6 gusting 20 22.8
2015-Aug-04 00:28 187 6 gusting 10 26.1
2015-Aug-03 23:28 192 5 gusting 16 27.8
2015-Aug-03 22:28 208 5 gusting 13 27.2
2015-Aug-03 21:28 147 5 gusting 10 26.7
2015-Aug-03 20:28 176 4 gusting 14 25.0
2015-Aug-03 19:28 169 4 gusting 8 22.2
2015-Aug-03 18:28 200 2 gusting 5 20.0
2015-Aug-03 17:28 143 2 gusting 4 17.8
2015-Aug-03 16:28 144 2 gusting 5 16.7
2015-Aug-03 15:28 146 3 gusting 5 15.6
2015-Aug-03 14:28 303 0 gusting 2 15.0
2015-Aug-03 13:28 326 1 gusting 2 14.4
2015-Aug-03 12:28 15.0
2015-Aug-03 11:28 180 0 gusting 2 15.0
2015-Aug-03 10:28 221 1 gusting 2 15.0
2015-Aug-03 09:28 307 1 gusting 2 13.9
2015-Aug-03 08:28 13.9
2015-Aug-03 07:28 14.4
2015-Aug-03 06:28 292 0 gusting 2 15.6
2015-Aug-03 05:28 147 0 gusting 6 17.8
2015-Aug-03 04:28 162 1 gusting 4 19.4
2015-Aug-03 03:28 215 2 gusting 13 21.7
2015-Aug-03 02:28 167 6 gusting 14 24.4
2015-Aug-03 01:28 160 5 gusting 9 26.1
2015-Aug-03 00:28 199 5 gusting 14 29.4
2015-Aug-02 23:28 206 6 gusting 18 30.6